Regional Weather Roundup
Issued by NWS Sterling, VA

Home | Current Version | Previous Version | Graphics & Text | Print | Product List | Glossary On
Versions: 1 2 3 4 5 6 7 8 9 10 11 12 13 14 15 16 17 18 19 20 21 22 23 24 25 26 27 28 29 30 31 32 33 34 35 36 37 38 39 40 41 42 43 44 45 46 47 48 49
000
ASUS41 KLWX 302310
RWRLWX

REGIONAL WEATHER ROUNDUP
NATIONAL WEATHER SERVICE BALTIMORE MD/WASHINGTON DC
700 PM EDT TUE SEP 30 2014

Note: "FAIR" indicates few or no clouds below 12,000 feet
with no significant weather and/or obstructions to visibility.
 TC=TEMPERATURE CELSIUS

 * =Non NWS site. Station does not report precipitation (e.g. rain,
    snow, etc.), thunder, or fog.

DCZ001-MDZ009-015-VAZ040>042-051-053>054-010000-
WASHINGTON METRO

CITY           SKY/WX    TMP DP  RH WIND       PRES   REMARKS
WASHINGTON NAT PTCLDY    73  63  70 S7        29.88R
DULLES         PTCLDY    67  60  78 SW5       29.88R
ANDREWS AFB    CLEAR     69  58  68 E5        29.88R
QUANTICO       PTCLDY    69  63  81 NW6       29.89R
COLLEGE PARK*  CLEAR     72  59  64 CALM      29.88R
LEESBURG*      CLEAR     68  64  88 W3        29.89R
MANASSAS*      CLEAR     68  64  88 CALM      29.88R
GAITHERSBURG*  MOCLDY    68  61  77 E3        29.92R

$$

MDZ006>007-011-014-010000-
BALTIMORE METRO

CITY           SKY/WX    TMP DP  RH WIND       PRES   REMARKS
BWI AIRPORT    PTCLDY    68  59  73 CALM      29.88R
MD SCIENCE CTR   N/A     74  57  55 MISG      29.88R
ANNAPOLIS      CLEAR     71  63  75 CALM      29.88R
FORT MEADE*    CLEAR     64  61  88 CALM      29.90R

$$

MDZ012-015-019>023-010000-
MARYLAND EASTERN SHORE

CITY           SKY/WX    TMP DP  RH WIND       PRES   REMARKS
OCEAN CITY     CLEAR     69  62  78 E8        29.89R
SALISBURY      CLEAR     70  62  76 E6        29.89R
BAY BRIDGE AP*   N/A     70  63  78 CALM      29.88R
CAMBRIDGE*     MOCLDY    72  63  73 NE3       29.89R
EASTON*        MOCLDY    73  63  68 CALM      29.92R

$$

MDZ017>025-010000-
SOUTHERN MARYLAND

CITY           SKY/WX    TMP DP  RH WIND       PRES   REMARKS
PATUXENT RIVER PTCLDY    69  61  75 CALM      29.88R
ST INIGOES     CLEAR     68  61  78 CALM      29.88R
LEONARDTOWN*   CLEAR     68  61  77 CALM      29.90R

$$

MDZ003>005-010000-
NORTH CENTRAL MARYLAND

CITY           SKY/WX    TMP DP  RH WIND       PRES   REMARKS
FREDERICK*     MOCLDY    73  64  73 CALM      29.90R
HAGERSTOWN APT LGT RAIN  71  62  73 N6        29.89R
WESTMINSTER*   PTCLDY    72  59  64 SE6       29.90R

$$

MDZ501>502-010000-
WESTERN MARYLAND

CITY           SKY/WX    TMP DP  RH WIND       PRES   REMARKS
OAKLAND*       CLOUDY    52 N/A N/A S6        29.97F
CUMBERLAND*    CLOUDY    70  50  49 N5        29.92R

$$

VAZ025>031-010000-
SHENANDOAH VALLEY

CITY           SKY/WX    TMP DP  RH WIND       PRES   REMARKS
WINCHESTER*    PTCLDY    68  61  77 E5        29.88R
STAUNTON*      CLOUDY    70  59  67 S3        29.90R

$$

WVZ021-048>050-054>055-010000-
EASTERN WEST VIRGINIA PANHANDLE

CITY           SKY/WX    TMP DP  RH WIND       PRES   REMARKS
MARTINSBURG    LGT RAIN  70  59  68 CALM      29.89R
PETERSBURG*    CLOUDY   N/A N/A N/A CALM      29.92R

$$

VAZ036>039-050-010000-
CENTRAL FOOTHILLS

CITY           SKY/WX    TMP DP  RH WIND       PRES   REMARKS
CHARLOTTESVILL MOCLDY    65  61  87 S5        29.89S
ORANGE*        MOCLDY    66  61  82 CALM      29.91S

$$

VAZ055>057-010000-
NORTH AND CENTRAL PIEDMONT

CITY           SKY/WX    TMP DP  RH WIND       PRES   REMARKS
FREDERICKSBRG* CLEAR     70  64  82 CALM      29.87R
STAFFORD*      CLEAR     65  65 100 CALM      29.92R

$$

NCZ024-NYZ072-PAZ021-071-VAZ022-071-010000-
OTHER REGIONAL OBSERVATIONS

CITY           SKY/WX    TMP DP  RH WIND       PRES   REMARKS
NEW YORK CITY  CLOUDY    66  57  72 VRB6      29.98R
PHILADELPHIA   MOCLDY    69  59  70 E16       29.91R
PITTSBURGH     PTCLDY    65  58  78 CALM      29.90S
ROANOKE        PTCLDY    74  55  51 W5        29.90R
RICHMOND       PTCLDY    68  61  78 NE3       29.89R
RALEIGH        PTCLDY    70  62  76 E3        29.88S

$$

ANZ530>537-010000-
MARINE OBSERVATIONS

STATION/POSITION TIME  TEMP    WIND        PRES
                       AIR SEA DIR/SP/G
                 (UTC) (F)     (DEG/KT/KT) (MB)
THOMAS PT LIGHT  2300   72 72  220/  2/  2 1012.9R
BALT KEY BRIDGE  2300   73     130/  3/  3 1011.6R
COVE POINT       2300   71     180/  4/  4 1011.6S
LEWISETTA        2300   72 72  120/  5/  6 1011.4R
SOLOMONS ISLAND  2300      74                N/A
PINEY POINT      2300          150/  3/  4   N/A

$$




USA.gov is the U.S. government's official web portal to all federal, state and local government web resources and services.